Location: Giuncaggio
(42.2162°N, 9.3662°E)
Time: 17:57:04
(UTC+00:00)

Daily predictions for brighter satellites

Satellite Brightness Start Highest point End
(mag) Time Altitude Azimuth Time Altitude Azimuth Time Altitude Azimuth
H-2A ROCKET BODY 3.8 19:30:38 10° SW 19:34:21 24° SSE 19:44:00 10° ESE
DMSP B5D2-2 4.2 19:29:21 10° NNE 19:34:36 88° WNW 19:39:49 10° SSW
Meteor 2-10 Rocket 4.1 19:31:52 10° N 19:36:43 42° ENE 19:41:43 10° SE
Cosmos 1626 Rocket 3.6 19:33:06 10° S 19:37:31 74° E 19:41:59 10° NNE
Ariane Rocket 4.3 19:35:05 10° SSW 19:39:52 41° W 19:44:41 10° NNW
Lacrosse 5 rocket 4.2 19:36:50 10° WNW 19:39:57 19° NNW 19:42:59 10° NNE
OAO 3 Rocket 4.0 19:36:52 10° WSW 19:41:20 35° S 19:45:49 10° ESE
ATLAS 5 CENTAUR R/B 4.4 19:38:45 10° WSW 19:42:35 20° NW 19:44:43 10° N
Cosmos 1745 Rocket 4.2 19:39:45 10° SSE 19:45:43 54° E 19:51:47 10° NNE
Resurs 1-3 3.8 19:44:58 10° S 19:49:21 76° WSW 19:53:45 10° NNW
Cosmos 1125 Rocket 3.6 19:46:53 10° NNW 19:52:10 88° WSW 19:57:27 10° SSE
Cosmos 1300 4.4 19:50:37 10° NNW 19:54:03 32° W 19:57:28 10° SSW
H-2A R/B 4.4 19:50:10 10° SW 19:54:24 23° W 19:58:40 10° NW
Meteor 1-21 Rocket 4.4 19:48:56 10° S 19:54:45 67° E 20:00:39 10° NNE
VEP-3 4.2 19:56:01 10° SW 19:59:43 17° S 20:03:43 12° SE
Cosmos 2322 Rocket 2.8 19:54:45 10° SW 20:00:17 62° WNW 20:05:53 10° NNE
SL-08 ROCKET BODY 4.4 19:55:18 10° S 20:01:10 71° E 20:07:12 10° NNE
SPOT 3 Rocket 4.1 19:56:32 10° S 20:01:40 60° WSW 20:06:51 10° NNW
NOSS 7 (D) 4.1 19:59:45 10° SW 20:02:39 70° NW 20:05:21 10° NNE
Cosmos 2237 4.2 19:57:16 10° SSW 20:02:59 79° ESE 20:08:45 10° NNE
OAO 2 Rocket 4.1 20:00:11 10° SW 20:04:56 34° S 20:09:33 11° ESE
Cosmos 1328 4.4 20:01:46 10° SSE 20:05:28 38° E 20:09:10 10° NNE
Cosmos 1455 2.2 20:09:36 10° N 20:13:27 75° E 20:16:46 14° SSE
Cosmos 1461 4.2 20:09:20 10° NW 20:13:47 41° WSW 20:18:12 10° S
Cosmos 1825 Rocket 3.8 20:10:26 10° S 20:14:44 53° E 20:19:05 10° NNE
Cosmos 1703 3.2 20:15:31 10° S 20:19:20 66° E 20:23:12 10° NNE
ATLAS CENTAUR R/B 3.3 20:17:13 10° N 20:19:35 16° NE 20:21:54 10° E
COSMOS 2428 3.4 20:15:32 11° SSE 20:20:15 32° ESE 20:25:13 10° NE
SL-24 R/B - RUBIN 2 4.4 20:17:09 10° SSW 20:22:59 68° ESE 20:29:29 10° NE
Cosmos 1812 Rocket 4.0 20:19:26 10° NNW 20:23:42 59° W 20:27:56 10° S
Cosmos 2322 3.8 20:18:26 10° S 20:24:02 59° ESE 20:29:40 10° NNE
Cosmos 1844 4.0 20:19:41 10° NNW 20:25:24 59° ENE 20:29:32 19° SE
Delta 2 Rocket 3.9 20:24:26 10° WSW 20:27:19 26° S 20:28:10 23° SSE
Cosmos 783 Rocket 4.5 20:24:58 10° SSW 20:30:14 90° WNW 20:35:29 10° NNE
Cosmos 1709 Rocket 4.0 20:24:32 10° S 20:30:44 68° E 20:37:03 10° NNE
NOSS 3-3 (A) 4.1 20:27:06 10° S 20:32:33 48° ESE 20:38:38 10° NE
NOSS 3-3 (C) 4.1 20:27:12 10° S 20:32:40 47° ESE 20:38:44 10° NE
MetOp-B 4.3 20:27:49 12° S 20:32:49 72° WSW 20:38:11 10° NNW
Cosmos 2263 Rocket 4.3 20:29:24 10° NW 20:33:21 20° W 20:37:17 10° SW
Cosmos 2237 Rocket 3.8 20:33:12 15° ESE 20:34:11 16° E 20:37:28 10° ENE
Terra 2.9 20:31:40 18° ESE 20:34:21 30° ENE 20:38:29 10° N
Nadezhda 1 Rocket 4.4 20:28:04 10° NNW 20:34:25 69° W 20:40:44 10° S
Atlas Centaur 2 3.4 20:30:16 10° SW 20:35:22 29° S 20:38:47 20° SE
CARTOSAT-1 4.1 20:32:57 22° SE 20:35:25 45° ENE 20:39:32 10° N
Cosmos 2333 4.1 20:30:14 10° SSW 20:35:49 71° ESE 20:41:30 10° NNE
Cosmos 2219 Rocket 2.4 20:30:54 10° S 20:36:14 49° ESE 20:41:37 10° NE
Cosmos 2360 Rocket 2.8 20:32:38 10° SW 20:38:10 58° WNW 20:43:47 10° NNE
IGS 5A 3.5 20:35:34 18° S 20:38:34 81° W 20:42:44 10° NNW
Cosmos 1538 Rocket 4.4 20:35:01 15° S 20:39:07 46° ESE 20:44:11 10° NNE
IRIS 3.6 20:39:47 10° WSW 20:42:45 67° S 20:43:18 46° ESE
DELTA 2 R/B (1) 4.2 20:38:41 10° SW 20:43:38 33° SSE 20:48:36 10° E
BREEZE-M (TANK) 4.4 20:42:01 17° S 20:45:00 35° ESE 20:56:31 10° ENE
Cosmos 2333 Rocket 2.2 20:40:24 10° S 20:45:59 64° ESE 20:51:40 10° NNE
Resurs 01 Rocket 3.5 20:46:51 10° SSW 20:50:31 25° W 20:54:11 10° NW
ATLAS 2AS CENTAUR R/B 4.4 20:45:50 10° NNW 20:52:13 28° NNE 20:58:10 10° E
Cosmos 1315 Rocket 3.5 20:48:50 10° N 20:52:45 42° ENE 20:54:13 30° ESE
Cosmos 773 Rocket 4.1 20:50:46 10° SSW 20:56:04 82° WNW 21:01:24 10° NNE
Cosmos-2242 3.4 20:51:57 10° NNW 20:56:15 60° W 20:59:06 20° S
ERS-1 Rocket 2.9 20:56:51 26° SSE 20:59:47 86° ENE 21:04:51 10° NNW
Cosmos 2221 3.6 20:57:17 10° NNE 21:01:13 31° ENE 21:02:30 26° ESE
GEOS 3 Rocket 4.4 20:59:11 10° NNE 21:04:26 55° NW 21:09:41 10° SW
Cosmos 1892 4.1 21:07:02 23° E 21:07:02 23° E 21:10:00 10° NE
USA 215 3.2 21:01:07 10° NE 21:07:42 90° NNW 21:14:15 10° SW
Cosmos 2278 Rocket 3.2 21:05:03 10° N 21:10:16 36° ENE 21:13:09 22° ESE
Meteor 1-11 4.4 21:05:32 13° SSW 21:10:32 74° W 21:16:14 10° N
ATLAS 5 CENTAUR R/B 3.5 21:06:57 10° WSW 21:10:41 31° NW 21:14:50 10° NNE
Cosmos 1844 Rocket 3.4 21:09:47 10° NW 21:15:04 45° WSW 21:18:16 22° SSW
Cosmos 1400 Rocket 4.2 21:11:55 10° NNW 21:15:30 33° W 21:17:42 19° SW
SPOT 5 3.0 21:13:56 30° S 21:16:31 77° WSW 21:21:23 10° NNW
SL-16 R/B 4.1 21:18:56 13° E 21:18:56 13° E 21:20:57 10° ENE
USA 81 4.3 21:19:51 21° SSW 21:23:25 66° W 21:28:41 10° N
Cosmos 2154 Rocket 4.5 21:23:04 31° SE 21:25:18 43° E 21:31:06 10° NNE
Cosmos 2058 3.4 21:25:00 39° ESE 21:25:22 40° E 21:29:15 10° NNE
Cosmos 1408 4.2 21:29:06 22° ENE 21:29:06 22° ENE 21:31:22 10° NE
BREEZE M DEB (TANK) 3.2 21:26:19 10° WNW 21:27:38 31° WNW 21:27:38 31° WNW
Meteor 2-17 Rocket 4.5 21:27:25 34° SSE 21:30:01 61° E 21:35:59 10° NNE
Cosmos 2181 Rocket 4.3 21:24:19 10° NNW 21:30:35 65° W 21:34:15 26° SSW
In-Cosmos 22 Rocket 4.2 21:29:55 39° SSE 21:31:39 58° E 21:36:51 10° NNE
Cosmos 2074 Rocket 3.9 21:29:16 30° S 21:32:32 80° E 21:38:46 10° N
Cosmos 1076 Rocket 3.8 21:36:08 46° ESE 21:36:32 48° E 21:40:40 10° NNE
Cosmos 1680 Rocket 3.8 21:35:41 41° SE 21:36:54 49° ESE 21:42:01 10° NNE
USA 267 3.7 21:34:05 20° ESE 21:38:44 60° NNE 21:45:10 10° NW
Cosmos 2151 4.3 21:47:18 26° E 21:47:18 26° E 21:50:40 10° NNE
Cosmos 2084 3.4 21:42:55 10° NW 21:47:23 79° WSW 21:48:05 61° SSE
Cosmos 1842 Rocket 3.7 21:43:45 10° NNW 21:48:04 65° W 21:49:02 49° SSW
OAO 2 Rocket 4.1 21:44:21 10° WSW 21:48:29 35° SSW 21:48:29 35° SSW
JB-3 4.3 21:45:30 10° N 21:49:20 72° WNW 21:49:57 57° SW
MTI 4.5 21:50:15 10° N 21:53:10 47° WNW 21:53:10 47° WNW
Cosmos 923 Rocket 3.9 21:52:20 38° SSW 21:54:23 88° WNW 21:59:42 10° NNE
Cosmos 2327 Rocket 4.4 21:52:15 39° S 21:54:43 81° E 22:00:53 10° N
Cosmos 1825 3.2 21:58:09 34° ENE 21:58:09 34° ENE 22:01:01 10° NNE
ATLAS CENTAUR R/B 1.6 21:55:11 10° NW 21:58:26 47° W 21:58:26 47° W
ALOS 2 4.1 21:58:03 23° E 21:58:48 24° ENE 22:02:21 10° NNE
Cosmos 1980 3.6 21:56:55 37° SSW 21:59:14 86° ESE 22:04:55 10° NNE
Cosmos 44 4.4 22:05:15 25° E 22:05:15 25° E 22:07:40 10° NE
COSMOS 2428 4.0 21:59:09 10° SW 22:04:24 38° WNW 22:09:41 10° N
Cosmos 1295 Rocket 4.4 22:06:31 46° SSE 22:08:26 74° E 22:14:33 10° NNE
Cosmos 1869 4.1 22:05:10 10° NNW 22:08:57 42° W 22:09:22 41° WSW
GP-B 4.3 22:07:36 10° NNE 22:11:24 28° E 22:11:24 28° E
NOSS 0 Rocket 4.2 22:07:31 21° SW 22:11:39 67° WNW 22:17:49 10° NNE
Terra 3.2 22:10:34 25° SW 22:12:02 29° W 22:16:11 10° NW
Cosmos 1624 Rocket 4.4 22:10:43 10° N 22:15:51 53° ENE 22:16:57 45° ESE
NOSS 3-4 (A) 4.0 22:09:09 10° NNW 22:16:12 71° NE 22:19:47 34° SE
NOSS 3-4 (C) 4.0 22:09:16 10° NNW 22:16:19 70° NE 22:19:55 34° SE
Cosmos 2237 Rocket 2.3 22:14:58 34° SW 22:17:32 73° WNW 22:23:16 10° NNE
Genesis I 3.3 22:18:36 75° NNW 22:18:36 75° NNW 22:22:21 10° NNE
Cosmos 2344 3.4 22:16:02 29° SSW 22:20:14 78° ESE 22:28:04 10° NE
Cosmos 2219 Rocket 4.1 22:15:47 10° WSW 22:20:25 26° NW 22:25:07 10° N
BREEZE-M R/B 4.2 22:15:15 10° WNW 22:23:09 41° SW 22:23:36 40° SW
Atlas Centaur 2 4.1 22:18:40 10° WSW 22:21:21 20° SW 22:21:21 20° SW
DELTA 2 R/B (1) 3.5 22:24:07 10° WSW 22:29:38 64° S 22:30:03 61° SSE
Cosmos 2333 Rocket 4.5 22:26:25 10° W 22:30:45 22° NW 22:35:07 10° N
Thor Agena Rocket 3.6 22:26:58 10° N 22:32:03 69° WNW 22:33:18 49° SW
Cosmos 2221 4.3 22:35:13 10° NW 22:38:34 22° W 22:39:20 21° WSW
BREEZE-M DEB (TANK) 3.3 22:38:50 10° NW 22:41:22 29° N 22:41:22 29° N
Cosmos 1371 Rocket 3.9 22:38:20 10° NNW 22:43:37 77° WSW 22:44:15 67° SSW
Cosmos 1766 Rocket 3.6 22:44:24 72° ENE 22:44:24 72° ENE 22:48:35 10° NNE
ATLAS 2AS CENTAUR R/B 2.7 22:36:39 10° NW 22:44:11 87° WSW 22:46:25 48° SSE
EO 1 Del DPAF 4.0 22:41:28 10° N 22:44:59 44° WNW 22:44:59 44° WNW
Okean 3 Rocket 3.5 22:47:03 87° NW 22:47:03 87° NW 22:51:28 10° N
MOS 1-B Rocket 4.5 22:39:29 10° N 22:47:05 70° WNW 22:49:57 37° SW
Aureole 2 Rocket 4.4 22:47:42 10° NNW 22:48:59 24° N 22:48:59 24° N
Cosmos 1328 Rocket 3.8 22:46:22 10° N 22:50:25 56° ENE 22:50:25 56° ENE
Cosmos 2218 Rocket 4.0 22:50:54 54° SSE 22:52:20 71° E 22:58:38 10° NNE
Cosmos 1606 3.2 22:49:03 10° N 22:52:19 60° NNE 22:52:19 60° NNE
Cosmos 2278 Rocket 3.1 22:49:14 10° NW 22:54:16 34° WSW 22:54:59 33° WSW
Cosmos 2297 3.8 22:50:15 10° NNW 22:56:00 71° ENE 22:57:12 54° SE
Cosmos 2366 rocket 4.0 22:56:35 55° SSE 22:58:01 75° E 23:04:22 10° N
Cosmos 1420 Rocket 4.1 22:54:34 10° NNW 22:59:50 68° ENE 23:00:36 59° ESE
Cosmos 1633 4.3 23:01:11 26° NE 23:01:11 26° NE 23:03:19 10° NNE
Lacrosse 5 rocket 4.1 22:58:57 10° NNW 23:01:18 15° NNE 23:03:34 10° NE
SL-16 R/B 2.1 23:00:46 61° SSW 23:01:50 87° WNW 23:07:34 10° NNE
Cosmos 1943 Rocket 3.2 22:57:15 10° N 23:02:34 39° ENE 23:04:40 29° ESE
Cosmos 2056 Rocket 3.8 23:02:14 10° NNW 23:07:32 56° WSW 23:07:58 54° SW
Cosmos 1959 Rocket 4.3 23:06:20 58° S 23:07:39 90° SE 23:13:52 10° N
Cosmos 1743 Rocket 4.3 23:12:36 41° ENE 23:12:36 41° ENE 23:16:15 10° NNE
Cosmos 1048 Rocket 4.2 23:19:32 54° ESE 23:19:40 54° ESE 23:24:49 10° NNE
Cosmos 332 Rocket 3.8 23:16:24 10° NNW 23:21:12 66° ENE 23:21:28 64° E
USA 267 3.6 23:21:24 43° SW 23:21:51 44° SW 23:28:04 10° WNW
Meteor 2-3 Rocket 3.6 23:21:02 65° SSW 23:21:53 85° W 23:27:37 10° N
Helios 1A 3.1 23:24:53 71° NNW 23:24:53 71° NNW 23:28:38 10° NNW
Cosmos 405 4.3 23:26:37 10° N 23:29:07 39° NNE 23:29:07 39° NNE
Cosmos 1340 3.8 23:34:23 38° NW 23:34:23 38° NW 23:37:20 10° N
Meteor 1-26 Rocket 4.2 23:28:21 10° NNW 23:34:22 76° W 23:35:20 62° SSW
Cosmos 1452 Rocket 3.3 23:29:22 10° NNW 23:34:39 89° WSW 23:35:06 76° SSE
ALOS 2 3.8 23:35:27 31° W 23:35:27 31° W 23:38:55 10° NNW
CZ-4C R/B 3.9 23:28:46 10° NNW 23:35:33 43° NE 23:43:17 10° ESE
Cosmos 1408 Rocket 4.1 23:35:56 50° WNW 23:35:56 50° WNW 23:40:07 10° N
COSMOS 2455 3.0 23:30:32 10° NNW 23:36:35 72° ENE 23:38:24 46° SE
Cosmos 1603 4.0 23:36:25 49° ESE 23:36:50 50° ESE 23:42:20 10° NE
PSLV R/B 4.0 23:32:51 10° NNE 23:36:34 53° ENE 23:36:34 53° ENE
Cosmos 1151 Rocket 4.1 23:36:32 10° NNW 23:40:03 35° WNW 23:40:03 35° WNW
Cosmos 1500 Rocket 3.6 23:44:49 79° NNW 23:44:49 79° NNW 23:49:00 10° N
Cosmos 1727 Rocket 4.0 23:40:35 10° NNW 23:46:47 70° W 23:48:04 55° SSW
Cosmos 2369 Rocket 2.5 23:41:38 10° NNW 23:47:11 61° ENE 23:48:49 43° ESE
Resurs 1-4 Rocket 4.1 23:44:09 10° NE 23:47:27 16° E 23:48:44 15° ESE
ISS -0.9 23:51:00 12° ENE 23:51:00 12° ENE 23:51:22 10° ENE
Cosmos 371 Rocket 3.9 23:46:10 10° NNW 23:50:25 44° W 23:50:25 44° W
SeaSat 1 3.8 23:47:18 10° NE 23:51:20 26° ESE 23:51:20 26° ESE
Helios 1B rocket 2.6 23:51:40 10° NNE 23:55:23 68° NE 23:55:23 68° NE
